Wetterdaten: Sonntag, 06.04.2014
Datum Zeit Temperatur Luftfeuchte Luftdruck Regen Wind Richtung Richtung Taupunkt Windchill Windben
06.04.2014 00:00 9,9 C 82 % 1018,5 hPa 0,0 l/m 0,0 km/h (0 Bft) SW 225 7,0 C 0,0 C 0,0 km/h (0 Bft)
06.04.2014 00:05 9,8 C 82 % 1018,5 hPa 0,0 l/m 0,0 km/h (0 Bft) SW 225 6,9 C 0,0 C 0,0 km/h (0 Bft)
06.04.2014 00:10 9,8 C 82 % 1018,8 hPa 0,0 l/m 0,0 km/h (0 Bft) SW 225 6,9 C 0,0 C 0,0 km/h (0 Bft)
06.04.2014 00:15 9,8 C 82 % 1018,8 hPa 0,0 l/m 0,0 km/h (0 Bft) SW 225 6,9 C 0,0 C 0,0 km/h (0 Bft)
06.04.2014 00:20 9,7 C 82 % 1018,8 hPa 0,0 l/m 0,0 km/h (0 Bft) SW 225 6,8 C 0,0 C 0,0 km/h (0 Bft)
06.04.2014 00:25 9,8 C 82 % 1018,8 hPa 0,0 l/m 0,0 km/h (0 Bft) SW 225 6,9 C 0,0 C 0,0 km/h (0 Bft)
06.04.2014 00:30 9,8 C 82 % 1018,4 hPa 0,0 l/m 0,0 km/h (0 Bft) SW 225 6,9 C 0,0 C 0,0 km/h (0 Bft)
06.04.2014 00:35 9,8 C 82 % 1018,4 hPa 0,0 l/m 0,0 km/h (0 Bft) SW 225 6,9 C 0,0 C 0,0 km/h (0 Bft)
06.04.2014 00:40 9,9 C 82 % 1018,4 hPa 0,0 l/m 0,0 km/h (0 Bft) SW 225 7,0 C 0,0 C 0,0 km/h (0 Bft)
06.04.2014 00:45 9,9 C 82 % 1018,4 hPa 0,0 l/m 0,0 km/h (0 Bft) SW 225 7,0 C 0,0 C 0,0 km/h (0 Bft)
06.04.2014 00:50 9,8 C 82 % 1018,2 hPa 0,0 l/m 0,0 km/h (0 Bft) SW 225 6,9 C 0,0 C 0,0 km/h (0 Bft)
06.04.2014 00:54 9,8 C 82 % 1018,2 hPa 0,0 l/m 0,0 km/h (0 Bft) SW 225 6,9 C 0,0 C 0,0 km/h (0 Bft)
06.04.2014 00:55 9,8 C 82 % 1018,2 hPa 0,0 l/m 0,0 km/h (0 Bft) SW 225 6,9 C 0,0 C 0,0 km/h (0 Bft)
06.04.2014 01:00 9,9 C 82 % 1018,2 hPa 0,0 l/m 0,0 km/h (0 Bft) SW 225 7,0 C 0,0 C 0,0 km/h (0 Bft)
06.04.2014 01:05 9,9 C 82 % 1018,2 hPa 0,0 l/m 0,0 km/h (0 Bft) SW 225 7,0 C 0,0 C 0,0 km/h (0 Bft)
06.04.2014 01:10 9,9 C 82 % 1018,1 hPa 0,0 l/m 0,0 km/h (0 Bft) SW 225 7,0 C 0,0 C 0,0 km/h (0 Bft)
06.04.2014 01:15 10,0 C 82 % 1018,1 hPa 0,0 l/m 0,0 km/h (0 Bft) SW 225 7,1 C 0,0 C 0,0 km/h (0 Bft)
06.04.2014 01:20 9,9 C 82 % 1018,1 hPa 0,0 l/m 0,0 km/h (0 Bft) SW 225 7,0 C 0,0 C 0,0 km/h (0 Bft)
06.04.2014 01:25 9,9 C 82 % 1018,1 hPa 0,0 l/m 0,0 km/h (0 Bft) SW 225 7,0 C 0,0 C 0,0 km/h (0 Bft)
06.04.2014 01:30 9,9 C 82 % 1018,7 hPa 0,0 l/m 0,0 km/h (0 Bft) SW 225 7,0 C 0,0 C 0,0 km/h (0 Bft)
06.04.2014 01:35 9,9 C 82 % 1018,7 hPa 0,0 l/m 0,0 km/h (0 Bft) SW 225 7,0 C 0,0 C 0,0 km/h (0 Bft)
06.04.2014 01:40 9,8 C 82 % 1018,7 hPa 0,0 l/m 0,0 km/h (0 Bft) SW 225 6,9 C 0,0 C 0,0 km/h (0 Bft)
06.04.2014 01:45 9,5 C 82 % 1018,7 hPa 0,0 l/m 0,0 km/h (0 Bft) SW 225 6,6 C 0,0 C 0,0 km/h (0 Bft)
06.04.2014 01:50 9,4 C 82 % 1018,5 hPa 0,0 l/m 0,0 km/h (0 Bft) SW 225 6,5 C 0,0 C 0,0 km/h (0 Bft)
06.04.2014 01:55 9,2 C 82 % 1018,5 hPa 0,0 l/m 0,0 km/h (0 Bft) SW 225 6,3 C 0,0 C 0,0 km/h (0 Bft)
06.04.2014 02:00 9,0 C 82 % 1018,5 hPa 0,0 l/m 0,0 km/h (0 Bft) SW 225 6,1 C 0,0 C 0,0 km/h (0 Bft)
06.04.2014 02:05 8,9 C 82 % 1018,5 hPa 0,0 l/m 0,0 km/h (0 Bft) SW 225 6,0 C 0,0 C 0,0 km/h (0 Bft)
06.04.2014 02:10 8,8 C 82 % 1018,3 hPa 0,0 l/m 0,0 km/h (0 Bft) SW 225 5,9 C 0,0 C 0,0 km/h (0 Bft)
06.04.2014 02:15 8,9 C 82 % 1018,3 hPa 0,0 l/m 0,0 km/h (0 Bft) SW 225 6,0 C 0,0 C 0,0 km/h (0 Bft)
06.04.2014 02:20 9,0 C 83 % 1018,3 hPa 0,0 l/m 0,0 km/h (0 Bft) SW 225 6,3 C 0,0 C 0,0 km/h (0 Bft)
06.04.2014 02:25 9,0 C 83 % 1018,3 hPa 0,0 l/m 0,0 km/h (0 Bft) SW 225 6,3 C 0,0 C 0,0 km/h (0 Bft)
06.04.2014 02:30 9,0 C 83 % 1018,2 hPa 0,0 l/m 0,0 km/h (0 Bft) SW 225 6,3 C 0,0 C 0,0 km/h (0 Bft)
06.04.2014 02:35 9,2 C 83 % 1018,2 hPa 0,0 l/m 0,0 km/h (0 Bft) SW 225 6,5 C 0,0 C 0,0 km/h (0 Bft)
06.04.2014 02:40 9,2 C 83 % 1018,2 hPa 0,0 l/m 0,0 km/h (0 Bft) SW 225 6,5 C 0,0 C 0,0 km/h (0 Bft)
06.04.2014 02:45 9,2 C 83 % 1018,2 hPa 0,0 l/m 0,0 km/h (0 Bft) SW 225 6,5 C 0,0 C 0,0 km/h (0 Bft)
06.04.2014 02:50 9,2 C 83 % 1018,4 hPa 0,0 l/m 0,0 km/h (0 Bft) SW 225 6,5 C 0,0 C 0,0 km/h (0 Bft)
06.04.2014 02:55 9,2 C 83 % 1018,4 hPa 0,0 l/m 0,0 km/h (0 Bft) SW 225 6,5 C 0,0 C 0,0 km/h (0 Bft)
06.04.2014 03:00 9,2 C 83 % 1018,4 hPa 0,0 l/m 0,0 km/h (0 Bft) SW 225 6,5 C 0,0 C 0,0 km/h (0 Bft)
06.04.2014 03:05 9,4 C 83 % 1018,4 hPa 0,0 l/m 0,0 km/h (0 Bft) SW 225 6,7 C 0,0 C 0,0 km/h (0 Bft)
06.04.2014 03:10 9,4 C 83 % 1018,4 hPa 0,0 l/m 0,0 km/h (0 Bft) SW 225 6,7 C 0,0 C 0,0 km/h (0 Bft)
06.04.2014 03:15 9,4 C 84 % 1018,4 hPa 0,0 l/m 0,0 km/h (0 Bft) SW 225 6,8 C 0,0 C 0,0 km/h (0 Bft)
06.04.2014 03:20 9,4 C 84 % 1018,4 hPa 0,0 l/m 0,0 km/h (0 Bft) SW 225 6,8 C 0,0 C 0,0 km/h (0 Bft)
06.04.2014 03:25 9,4 C 84 % 1018,4 hPa 0,0 l/m 0,0 km/h (0 Bft) SW 225 6,8 C 0,0 C 0,0 km/h (0 Bft)
06.04.2014 03:30 9,4 C 84 % 1018,1 hPa 0,0 l/m 0,0 km/h (0 Bft) SW 225 6,8 C 0,0 C 0,0 km/h (0 Bft)
06.04.2014 03:35 9,4 C 84 % 1018,1 hPa 0,0 l/m 0,0 km/h (0 Bft) SW 225 6,8 C 0,0 C 0,0 km/h (0 Bft)
06.04.2014 03:40 9,4 C 84 % 1018,1 hPa 0,0 l/m 0,0 km/h (0 Bft) SW 225 6,8 C 0,0 C 0,0 km/h (0 Bft)
06.04.2014 03:45 9,5 C 84 % 1018,1 hPa 0,0 l/m 0,0 km/h (0 Bft) SW 225 6,9 C 0,0 C 0,0 km/h (0 Bft)
06.04.2014 03:50 9,4 C 84 % 1018,4 hPa 0,0 l/m 0,0 km/h (0 Bft) SW 225 6,8 C 0,0 C 0,0 km/h (0 Bft)
06.04.2014 03:55 9,4 C 84 % 1018,4 hPa 0,0 l/m 0,0 km/h (0 Bft) SW 225 6,8 C 0,0 C 0,0 km/h (0 Bft)
06.04.2014 04:00 9,4 C 84 % 1018,4 hPa 0,0 l/m 0,0 km/h (0 Bft) SW 225 6,8 C 0,0 C 0,0 km/h (0 Bft)
06.04.2014 04:05 9,4 C 84 % 1018,4 hPa 0,0 l/m 0,0 km/h (0 Bft) SW 225 6,8 C 0,0 C 0,0 km/h (0 Bft)
06.04.2014 04:10 9,3 C 84 % 1018,2 hPa 0,0 l/m 0,0 km/h (0 Bft) SW 225 6,7 C 0,0 C 0,0 km/h (0 Bft)
06.04.2014 04:15 9,2 C 84 % 1018,2 hPa 0,0 l/m 0,0 km/h (0 Bft) SW 225 6,6 C 0,0 C 0,0 km/h (0 Bft)
06.04.2014 04:20 9,2 C 84 % 1018,2 hPa 0,0 l/m 0,0 km/h (0 Bft) SW 225 6,6 C 0,0 C 0,0 km/h (0 Bft)
06.04.2014 04:25 9,1 C 85 % 1018,2 hPa 0,0 l/m 0,0 km/h (0 Bft) SW 225 6,7 C 0,0 C 0,0 km/h (0 Bft)
06.04.2014 04:30 9,2 C 85 % 1018,2 hPa 0,0 l/m 0,0 km/h (0 Bft) SW 225 6,8 C 0,0 C 0,0 km/h (0 Bft)
06.04.2014 04:35 9,1 C 85 % 1018,2 hPa 0,0 l/m 0,0 km/h (0 Bft) SW 225 6,7 C 0,0 C 0,0 km/h (0 Bft)
06.04.2014 04:40 9,1 C 85 % 1018,2 hPa 0,0 l/m 0,0 km/h (0 Bft) SW 225 6,7 C 0,0 C 0,0 km/h (0 Bft)
06.04.2014 04:45 9,1 C 85 % 1018,2 hPa 0,0 l/m 0,0 km/h (0 Bft) SW 225 6,7 C 0,0 C 0,0 km/h (0 Bft)
06.04.2014 04:50 9,1 C 85 % 1018,1 hPa 0,0 l/m 0,0 km/h (0 Bft) SW 225 6,7 C 0,0 C 0,0 km/h (0 Bft)
06.04.2014 04:55 9,0 C 85 % 1018,1 hPa 0,0 l/m 0,0 km/h (0 Bft) SW 225 6,6 C 0,0 C 0,0 km/h (0 Bft)
06.04.2014 05:00 8,9 C 85 % 1018,1 hPa 0,0 l/m 0,0 km/h (0 Bft) SW 225 6,5 C 0,0 C 0,0 km/h (0 Bft)
06.04.2014 05:05 8,9 C 85 % 1018,1 hPa 0,0 l/m 0,0 km/h (0 Bft) SW 225 6,5 C 0,0 C 0,0 km/h (0 Bft)
06.04.2014 05:10 8,9 C 86 % 1018,1 hPa 0,0 l/m 0,0 km/h (0 Bft) SW 225 6,7 C 0,0 C 0,0 km/h (0 Bft)
06.04.2014 05:15 8,8 C 86 % 1018,1 hPa 0,0 l/m 0,0 km/h (0 Bft) SW 225 6,6 C 0,0 C 0,0 km/h (0 Bft)
06.04.2014 05:20 8,8 C 86 % 1018,1 hPa 0,0 l/m 0,0 km/h (0 Bft) SW 225 6,6 C 0,0 C 0,0 km/h (0 Bft)
06.04.2014 05:25 8,7 C 86 % 1018,1 hPa 0,0 l/m 0,0 km/h (0 Bft) SW 225 6,5 C 0,0 C 0,0 km/h (0 Bft)
06.04.2014 05:30 8,7 C 86 % 1018,2 hPa 0,0 l/m 0,0 km/h (0 Bft) SW 225 6,5 C 0,0 C 0,0 km/h (0 Bft)
06.04.2014 05:35 8,6 C 86 % 1018,2 hPa 0,0 l/m 0,0 km/h (0 Bft) SW 225 6,4 C 0,0 C 0,0 km/h (0 Bft)
06.04.2014 05:40 8,5 C 88 % 1018,2 hPa 0,0 l/m 0,0 km/h (0 Bft) SW 225 6,6 C 0,0 C 0,0 km/h (0 Bft)
06.04.2014 05:45 8,5 C 89 % 1018,2 hPa 0,0 l/m 0,0 km/h (0 Bft) SW 225 6,8 C 0,0 C 0,0 km/h (0 Bft)
06.04.2014 05:50 8,4 C 90 % 1018,2 hPa 0,0 l/m 0,0 km/h (0 Bft) SW 225 6,9 C 0,0 C 0,0 km/h (0 Bft)
06.04.2014 05:54 8,3 C 91 % 1018,2 hPa 0,0 l/m 0,0 km/h (0 Bft) SW 225 6,9 C 0,0 C 0,0 km/h (0 Bft)
06.04.2014 05:55 8,3 C 91 % 1018,2 hPa 0,0 l/m 0,0 km/h (0 Bft) SW 225 6,9 C 0,0 C 0,0 km/h (0 Bft)
06.04.2014 06:00 8,3 C 91 % 1018,2 hPa 0,0 l/m 0,0 km/h (0 Bft) SW 225 6,9 C 0,0 C 0,0 km/h (0 Bft)
06.04.2014 06:05 8,3 C 92 % 1018,2 hPa 0,0 l/m 0,0 km/h (0 Bft) SW 225 7,1 C 0,0 C 0,0 km/h (0 Bft)
06.04.2014 06:10 8,2 C 92 % 1018,6 hPa 0,0 l/m 0,0 km/h (0 Bft) SW 225 7,0 C 0,0 C 0,0 km/h (0 Bft)
06.04.2014 06:15 8,2 C 92 % 1018,6 hPa 0,0 l/m 0,0 km/h (0 Bft) SW 225 7,0 C 0,0 C 0,0 km/h (0 Bft)
06.04.2014 06:20 8,2 C 92 % 1018,6 hPa 0,0 l/m 0,0 km/h (0 Bft) SW 225 7,0 C 0,0 C 0,0 km/h (0 Bft)
06.04.2014 06:25 8,2 C 93 % 1018,6 hPa 0,0 l/m 0,0 km/h (0 Bft) SW 225 7,1 C 0,0 C 0,0 km/h (0 Bft)
06.04.2014 06:30 8,3 C 93 % 1018,6 hPa 0,0 l/m 0,0 km/h (0 Bft) SW 225 7,2 C 0,0 C 0,0 km/h (0 Bft)
06.04.2014 06:35 8,2 C 93 % 1018,6 hPa 0,0 l/m 0,0 km/h (0 Bft) SW 225 7,1 C 0,0 C 0,0 km/h (0 Bft)
06.04.2014 06:40 8,2 C 93 % 1018,6 hPa 0,0 l/m 0,0 km/h (0 Bft) SW 225 7,1 C 0,0 C 0,0 km/h (0 Bft)
06.04.2014 06:45 8,2 C 93 % 1018,6 hPa 0,0 l/m 0,0 km/h (0 Bft) SW 225 7,1 C 0,0 C 0,0 km/h (0 Bft)
06.04.2014 06:50 8,2 C 93 % 1018,6 hPa 0,0 l/m 0,0 km/h (0 Bft) SW 225 7,1 C 0,0 C 0,0 km/h (0 Bft)
06.04.2014 06:55 8,2 C 93 % 1018,6 hPa 0,0 l/m 0,0 km/h (0 Bft) SW 225 7,1 C 0,0 C 0,0 km/h (0 Bft)
06.04.2014 07:00 8,3 C 94 % 1018,6 hPa 0,0 l/m 0,0 km/h (0 Bft) SW 225 7,4 C 0,0 C 0,0 km/h (0 Bft)
06.04.2014 07:05 8,3 C 94 % 1018,6 hPa 0,0 l/m 0,0 km/h (0 Bft) SW 225 7,4 C 0,0 C 0,0 km/h (0 Bft)
06.04.2014 07:10 8,3 C 94 % 1018,5 hPa 0,0 l/m 0,0 km/h (0 Bft) SW 225 7,4 C 0,0 C 0,0 km/h (0 Bft)
06.04.2014 07:15 8,3 C 94 % 1018,5 hPa 0,0 l/m 0,0 km/h (0 Bft) SW 225 7,4 C 0,0 C 0,0 km/h (0 Bft)
06.04.2014 07:20 8,2 C 94 % 1018,5 hPa 0,0 l/m 0,0 km/h (0 Bft) SW 225 7,3 C 0,0 C 0,0 km/h (0 Bft)
06.04.2014 07:25 8,2 C 94 % 1018,5 hPa 0,0 l/m 0,0 km/h (0 Bft) SW 225 7,3 C 0,0 C 0,0 km/h (0 Bft)
06.04.2014 07:30 8,2 C 94 % 1018,6 hPa 0,0 l/m 0,0 km/h (0 Bft) SW 225 7,3 C 0,0 C 0,0 km/h (0 Bft)
06.04.2014 07:35 8,2 C 94 % 1018,6 hPa 0,0 l/m 0,0 km/h (0 Bft) SW 225 7,3 C 0,0 C 0,0 km/h (0 Bft)
06.04.2014 07:40 8,3 C 94 % 1018,6 hPa 0,0 l/m 0,0 km/h (0 Bft) SW 225 7,4 C 0,0 C 0,0 km/h (0 Bft)
06.04.2014 07:45 8,3 C 94 % 1018,6 hPa 0,0 l/m 0,0 km/h (0 Bft) SW 225 7,4 C 0,0 C 0,0 km/h (0 Bft)
06.04.2014 07:50 8,3 C 94 % 1018,7 hPa 0,0 l/m 0,0 km/h (0 Bft) SW 225 7,4 C 0,0 C 0,0 km/h (0 Bft)
06.04.2014 07:55 8,3 C 94 % 1018,7 hPa 0,0 l/m 0,0 km/h (0 Bft) SW 225 7,4 C 0,0 C 0,0 km/h (0 Bft)
06.04.2014 08:00 8,3 C 94 % 1018,7 hPa 0,0 l/m 0,0 km/h (0 Bft) SW 225 7,4 C 0,0 C 0,0 km/h (0 Bft)
06.04.2014 08:05 8,3 C 94 % 1018,7 hPa 0,0 l/m 0,0 km/h (0 Bft) SW 225 7,4 C 0,0 C 0,0 km/h (0 Bft)
06.04.2014 08:10 8,3 C 94 % 1019,1 hPa 0,0 l/m 0,0 km/h (0 Bft) SW 225 7,4 C 0,0 C 0,0 km/h (0 Bft)
06.04.2014 08:15 8,3 C 94 % 1019,1 hPa 0,0 l/m 0,0 km/h (0 Bft) SW 225 7,4 C 0,0 C 0,0 km/h (0 Bft)
06.04.2014 08:20 8,3 C 94 % 1019,1 hPa 0,0 l/m 0,0 km/h (0 Bft) SW 225 7,4 C 0,0 C 0,0 km/h (0 Bft)
06.04.2014 08:25 8,3 C 94 % 1019,1 hPa 0,0 l/m 0,0 km/h (0 Bft) SW 225 7,4 C 0,0 C 0,0 km/h (0 Bft)
06.04.2014 08:30 8,3 C 94 % 1018,9 hPa 0,0 l/m 0,0 km/h (0 Bft) SW 225 7,4 C 0,0 C 0,0 km/h (0 Bft)
06.04.2014 08:35 8,4 C 94 % 1018,9 hPa 0,0 l/m 0,0 km/h (0 Bft) SW 225 7,5 C 0,0 C 0,0 km/h (0 Bft)
06.04.2014 08:40 8,4 C 95 % 1018,9 hPa 0,0 l/m 0,0 km/h (0 Bft) SW 225 7,6 C 0,0 C 0,0 km/h (0 Bft)
06.04.2014 08:45 8,5 C 95 % 1018,9 hPa 0,0 l/m 0,0 km/h (0 Bft) SW 225 7,7 C 0,0 C 0,0 km/h (0 Bft)
06.04.2014 08:50 8,5 C 95 % 1018,8 hPa 0,0 l/m 0,0 km/h (0 Bft) SW 225 7,7 C 0,0 C 0,0 km/h (0 Bft)
06.04.2014 08:55 8,4 C 95 % 1018,8 hPa 0,0 l/m 0,0 km/h (0 Bft) SW 225 7,6 C 0,0 C 0,0 km/h (0 Bft)
06.04.2014 09:00 8,5 C 95 % 1018,8 hPa 0,0 l/m 0,0 km/h (0 Bft) SW 225 7,7 C 0,0 C 0,0 km/h (0 Bft)
06.04.2014 09:05 8,5 C 95 % 1018,8 hPa 0,0 l/m 0,0 km/h (0 Bft) SW 225 7,7 C 0,0 C 0,0 km/h (0 Bft)
06.04.2014 09:10 8,5 C 95 % 1018,7 hPa 0,0 l/m 0,0 km/h (0 Bft) SW 225 7,7 C 0,0 C 0,0 km/h (0 Bft)
06.04.2014 09:15 8,6 C 95 % 1018,7 hPa 0,0 l/m 0,0 km/h (0 Bft) SW 225 7,8 C 0,0 C 0,0 km/h (0 Bft)
06.04.2014 09:20 8,7 C 95 % 1018,7 hPa 0,0 l/m 0,0 km/h (0 Bft) SW 225 7,9 C 0,0 C 0,0 km/h (0 Bft)
06.04.2014 09:25 8,8 C 95 % 1018,7 hPa 0,0 l/m 0,0 km/h (0 Bft) SW 225 8,0 C 0,0 C 0,0 km/h (0 Bft)
06.04.2014 09:30 8,9 C 95 % 1018,4 hPa 0,0 l/m 0,0 km/h (0 Bft) SW 225 8,1 C 0,0 C 0,0 km/h (0 Bft)
06.04.2014 09:35 8,8 C 95 % 1018,4 hPa 0,0 l/m 0,0 km/h (0 Bft) SW 225 8,0 C 0,0 C 0,0 km/h (0 Bft)
06.04.2014 09:40 8,8 C 95 % 1018,4 hPa 0,0 l/m 0,0 km/h (0 Bft) SW 225 8,0 C 0,0 C 0,0 km/h (0 Bft)
06.04.2014 09:45 8,9 C 95 % 1018,4 hPa 0,0 l/m 0,0 km/h (0 Bft) SW 225 8,1 C 0,0 C 0,0 km/h (0 Bft)
06.04.2014 09:50 8,8 C 95 % 1020,4 hPa 0,0 l/m 0,0 km/h (0 Bft) SW 225 8,0 C 0,0 C 0,0 km/h (0 Bft)
06.04.2014 09:55 8,9 C 95 % 1020,4 hPa 0,0 l/m 0,0 km/h (0 Bft) SW 225 8,1 C 0,0 C 0,0 km/h (0 Bft)
06.04.2014 10:00 8,9 C 95 % 1020,4 hPa 0,0 l/m 0,0 km/h (0 Bft) SW 225 8,1 C 0,0 C 0,0 km/h (0 Bft)
06.04.2014 10:05 8,7 C 95 % 1020,4 hPa 0,0 l/m 0,0 km/h (0 Bft) SW 225 7,9 C 0,0 C 0,0 km/h (0 Bft)
06.04.2014 10:10 8,8 C 95 % 1020,8 hPa 0,0 l/m 0,0 km/h (0 Bft) SW 225 8,0 C 0,0 C 0,0 km/h (0 Bft)
06.04.2014 10:15 8,7 C 95 % 1020,8 hPa 0,0 l/m 0,0 km/h (0 Bft) SW 225 7,9 C 0,0 C 0,0 km/h (0 Bft)
06.04.2014 10:20 8,9 C 95 % 1020,8 hPa 0,0 l/m 0,0 km/h (0 Bft) SW 225 8,1 C 0,0 C 0,0 km/h (0 Bft)
06.04.2014 10:25 9,1 C 95 % 1020,8 hPa 0,0 l/m 0,0 km/h (0 Bft) SW 225 8,3 C 0,0 C 0,0 km/h (0 Bft)
06.04.2014 10:30 9,4 C 95 % 1020,9 hPa 0,0 l/m 0,0 km/h (0 Bft) SW 225 8,6 C 0,0 C 0,0 km/h (0 Bft)
06.04.2014 10:35 9,2 C 94 % 1020,9 hPa 0,0 l/m 0,0 km/h (0 Bft) SW 225 8,3 C 0,0 C 0,0 km/h (0 Bft)
06.04.2014 10:40 9,3 C 94 % 1020,9 hPa 0,0 l/m 0,0 km/h (0 Bft) SW 225 8,4 C 0,0 C 0,0 km/h (0 Bft)
06.04.2014 10:45 9,6 C 94 % 1020,9 hPa 0,0 l/m 0,0 km/h (0 Bft) SW 225 8,7 C 0,0 C 0,0 km/h (0 Bft)
06.04.2014 10:49 9,9 C 94 % 1021,0 hPa 0,0 l/m 0,0 km/h (0 Bft) SW 225 9,0 C 0,0 C 0,0 km/h (0 Bft)
06.04.2014 10:50 9,9 C 94 % 1021,0 hPa 0,0 l/m 0,0 km/h (0 Bft) SW 225 9,0 C 0,0 C 0,0 km/h (0 Bft)
06.04.2014 11:00 10,2 C 94 % 1021,0 hPa 0,0 l/m 0,0 km/h (0 Bft) SW 225 9,3 C 0,0 C 0,0 km/h (0 Bft)
06.04.2014 11:05 10,8 C 94 % 1021,0 hPa 0,0 l/m 0,0 km/h (0 Bft) SW 225 9,9 C 0,0 C 0,0 km/h (0 Bft)
06.04.2014 11:10 11,1 C 94 % 1021,4 hPa 0,0 l/m 0,0 km/h (0 Bft) SW 225 10,2 C 0,0 C 0,0 km/h (0 Bft)
06.04.2014 11:15 11,1 C 93 % 1021,4 hPa 0,0 l/m 0,0 km/h (0 Bft) SW 225 10,0 C 0,0 C 0,0 km/h (0 Bft)
06.04.2014 11:20 11,4 C 92 % 1021,4 hPa 0,0 l/m 0,0 km/h (0 Bft) SW 225 10,1 C 0,0 C 0,0 km/h (0 Bft)
06.04.2014 11:25 12,2 C 91 % 1021,4 hPa 0,0 l/m 0,0 km/h (0 Bft) SW 225 10,8 C 0,0 C 0,0 km/h (0 Bft)
06.04.2014 11:30 13,2 C 88 % 1021,8 hPa 0,0 l/m 0,0 km/h (0 Bft) SW 225 11,3 C 0,0 C 0,0 km/h (0 Bft)
06.04.2014 11:35 13,0 C 84 % 1021,8 hPa 0,0 l/m 0,0 km/h (0 Bft) SW 225 10,4 C 0,0 C 0,0 km/h (0 Bft)
06.04.2014 11:40 13,1 C 83 % 1021,8 hPa 0,0 l/m 0,0 km/h (0 Bft) SW 225 10,3 C 0,0 C 0,0 km/h (0 Bft)
06.04.2014 11:45 13,4 C 84 % 1021,8 hPa 0,0 l/m 0,0 km/h (0 Bft) SW 225 10,8 C 0,0 C 0,0 km/h (0 Bft)
06.04.2014 11:50 13,1 C 83 % 1022,2 hPa 0,0 l/m 0,0 km/h (0 Bft) SW 225 10,3 C 0,0 C 0,0 km/h (0 Bft)
06.04.2014 11:55 12,8 C 84 % 1022,2 hPa 0,0 l/m 0,0 km/h (0 Bft) SW 225 10,2 C 0,0 C 0,0 km/h (0 Bft)
06.04.2014 12:00 12,5 C 84 % 1022,2 hPa 0,0 l/m 0,0 km/h (0 Bft) SW 225 9,9 C 0,0 C 0,0 km/h (0 Bft)
06.04.2014 12:05 12,8 C 85 % 1022,2 hPa 0,0 l/m 0,0 km/h (0 Bft) SW 225 10,3 C 0,0 C 0,0 km/h (0 Bft)
06.04.2014 12:10 12,9 C 85 % 1021,7 hPa 0,0 l/m 0,0 km/h (0 Bft) SW 225 10,4 C 0,0 C 0,0 km/h (0 Bft)
06.04.2014 12:15 13,2 C 83 % 1021,7 hPa 0,0 l/m 0,0 km/h (0 Bft) SW 225 10,4 C 0,0 C 0,0 km/h (0 Bft)
06.04.2014 12:20 13,0 C 82 % 1021,7 hPa 0,0 l/m 0,0 km/h (0 Bft) SW 225 10,0 C 0,0 C 0,0 km/h (0 Bft)
06.04.2014 12:25 13,0 C 84 % 1021,7 hPa 0,0 l/m 0,0 km/h (0 Bft) SW 225 10,4 C 0,0 C 0,0 km/h (0 Bft)
06.04.2014 12:30 12,9 C 83 % 1021,1 hPa 0,0 l/m 0,0 km/h (0 Bft) SW 225 10,1 C 0,0 C 0,0 km/h (0 Bft)
06.04.2014 12:35 12,8 C 82 % 1021,1 hPa 0,0 l/m 0,0 km/h (0 Bft) SW 225 9,8 C 0,0 C 0,0 km/h (0 Bft)
06.04.2014 12:40 12,8 C 84 % 1021,1 hPa 0,0 l/m 0,0 km/h (0 Bft) SW 225 10,2 C 0,0 C 0,0 km/h (0 Bft)
06.04.2014 12:45 13,2 C 84 % 1021,1 hPa 0,0 l/m 0,0 km/h (0 Bft) SW 225 10,6 C 0,0 C 0,0 km/h (0 Bft)
06.04.2014 12:50 13,1 C 80 % 1020,7 hPa 0,0 l/m 0,0 km/h (0 Bft) SW 225 9,7 C 0,0 C 0,0 km/h (0 Bft)
06.04.2014 12:55 14,2 C 78 % 1020,7 hPa 0,0 l/m 0,0 km/h (0 Bft) SW 225 10,4 C 0,0 C 0,0 km/h (0 Bft)
06.04.2014 13:00 13,9 C 81 % 1020,7 hPa 0,0 l/m 0,0 km/h (0 Bft) SW 225 10,7 C 0,0 C 0,0 km/h (0 Bft)
06.04.2014 13:05 15,1 C 75 % 1020,7 hPa 0,0 l/m 0,0 km/h (0 Bft) SW 225 10,7 C 0,0 C 0,0 km/h (0 Bft)
06.04.2014 13:10 14,4 C 78 % 1020,9 hPa 0,0 l/m 0,0 km/h (0 Bft) SW 225 10,6 C 0,0 C 0,0 km/h (0 Bft)
06.04.2014 13:15 14,5 C 78 % 1020,9 hPa 0,0 l/m 0,0 km/h (0 Bft) SW 225 10,7 C 0,0 C 0,0 km/h (0 Bft)
06.04.2014 13:20 14,6 C 80 % 1020,9 hPa 0,0 l/m 0,0 km/h (0 Bft) SW 225 11,2 C 0,0 C 0,0 km/h (0 Bft)
06.04.2014 13:25 14,7 C 79 % 1020,9 hPa 0,0 l/m 0,0 km/h (0 Bft) SW 225 11,1 C 0,0 C 0,0 km/h (0 Bft)
06.04.2014 13:30 14,7 C 78 % 1020,8 hPa 0,0 l/m 0,0 km/h (0 Bft) SW 225 10,9 C 0,0 C 0,0 km/h (0 Bft)
06.04.2014 13:35 14,2 C 70 % 1020,8 hPa 0,0 l/m 0,0 km/h (0 Bft) SW 225 8,8 C 0,0 C 0,0 km/h (0 Bft)
06.04.2014 13:40 13,9 C 70 % 1020,8 hPa 0,0 l/m 0,0 km/h (0 Bft) SW 225 8,5 C 0,0 C 0,0 km/h (0 Bft)
06.04.2014 13:45 13,4 C 70 % 1020,8 hPa 0,0 l/m 0,0 km/h (0 Bft) SW 225 8,0 C 0,0 C 0,0 km/h (0 Bft)
06.04.2014 13:50 13,1 C 71 % 1021,1 hPa 0,0 l/m 0,0 km/h (0 Bft) SW 225 8,0 C 0,0 C 0,0 km/h (0 Bft)
06.04.2014 13:55 12,6 C 73 % 1021,1 hPa 0,0 l/m 0,0 km/h (0 Bft) SW 225 7,9 C 0,0 C 0,0 km/h (0 Bft)
06.04.2014 14:00 12,6 C 74 % 1021,1 hPa 0,0 l/m 0,0 km/h (0 Bft) SW 225 8,1 C 0,0 C 0,0 km/h (0 Bft)
06.04.2014 14:05 12,4 C 74 % 1021,1 hPa 0,0 l/m 0,0 km/h (0 Bft) SW 225 7,9 C 0,0 C 0,0 km/h (0 Bft)
06.04.2014 14:10 12,3 C 75 % 1020,8 hPa 0,0 l/m 0,0 km/h (0 Bft) SW 225 8,0 C 0,0 C 0,0 km/h (0 Bft)
06.04.2014 14:15 12,1 C 76 % 1020,8 hPa 0,0 l/m 0,0 km/h (0 Bft) SW 225 8,0 C 0,0 C 0,0 km/h (0 Bft)
06.04.2014 14:20 11,8 C 78 % 1020,8 hPa 0,0 l/m 0,0 km/h (0 Bft) SW 225 8,1 C 0,0 C 0,0 km/h (0 Bft)
06.04.2014 14:25 11,6 C 80 % 1020,8 hPa 0,0 l/m 0,0 km/h (0 Bft) SW 225 8,3 C 0,0 C 0,0 km/h (0 Bft)
06.04.2014 14:30 11,6 C 81 % 1020,8 hPa 0,0 l/m 0,0 km/h (0 Bft) SW 225 8,5 C 0,0 C 0,0 km/h (0 Bft)
06.04.2014 14:35 11,6 C 83 % 1020,8 hPa 0,0 l/m 0,0 km/h (0 Bft) SW 225 8,8 C 0,0 C 0,0 km/h (0 Bft)
06.04.2014 14:40 11,6 C 83 % 1020,8 hPa 0,0 l/m 0,0 km/h (0 Bft) SW 225 8,8 C 0,0 C 0,0 km/h (0 Bft)
06.04.2014 14:45 11,6 C 84 % 1020,8 hPa 0,0 l/m 0,0 km/h (0 Bft) SW 225 9,0 C 0,0 C 0,0 km/h (0 Bft)
06.04.2014 14:50 11,7 C 85 % 1020,8 hPa 0,0 l/m 0,0 km/h (0 Bft) SW 225 9,3 C 0,0 C 0,0 km/h (0 Bft)
06.04.2014 14:55 11,6 C 84 % 1020,8 hPa 0,0 l/m 0,0 km/h (0 Bft) SW 225 9,0 C 0,0 C 0,0 km/h (0 Bft)
06.04.2014 15:00 11,6 C 85 % 1020,8 hPa 0,0 l/m 0,0 km/h (0 Bft) SW 225 9,2 C 0,0 C 0,0 km/h (0 Bft)
06.04.2014 15:05 11,3 C 84 % 1020,8 hPa 0,0 l/m 0,0 km/h (0 Bft) SW 225 8,7 C 0,0 C 0,0 km/h (0 Bft)
06.04.2014 15:10 11,0 C 85 % 1020,8 hPa 0,0 l/m 0,0 km/h (0 Bft) SW 225 8,6 C 0,0 C 0,0 km/h (0 Bft)
06.04.2014 15:15 11,0 C 87 % 1020,8 hPa 0,0 l/m 0,0 km/h (0 Bft) SW 225 8,9 C 0,0 C 0,0 km/h (0 Bft)
06.04.2014 15:20 11,2 C 88 % 1020,8 hPa 0,0 l/m 0,0 km/h (0 Bft) SW 225 9,3 C 0,0 C 0,0 km/h (0 Bft)
06.04.2014 15:25 10,9 C 86 % 1020,8 hPa 0,0 l/m 0,0 km/h (0 Bft) SW 225 8,7 C 0,0 C 0,0 km/h (0 Bft)
06.04.2014 15:30 11,3 C 86 % 1020,8 hPa 0,0 l/m 0,0 km/h (0 Bft) SW 225 9,0 C 0,0 C 0,0 km/h (0 Bft)
06.04.2014 15:35 11,8 C 88 % 1020,8 hPa 0,0 l/m 0,0 km/h (0 Bft) SW 225 9,9 C 0,0 C 0,0 km/h (0 Bft)
06.04.2014 15:40 11,8 C 88 % 1020,8 hPa 0,0 l/m 0,0 km/h (0 Bft) SW 225 9,9 C 0,0 C 0,0 km/h (0 Bft)
06.04.2014 15:45 12,2 C 87 % 1020,8 hPa 0,0 l/m 0,0 km/h (0 Bft) SW 225 10,1 C 0,0 C 0,0 km/h (0 Bft)
06.04.2014 15:49 12,7 C 87 % 1020,6 hPa 0,0 l/m 0,0 km/h (0 Bft) SW 225 10,6 C 0,0 C 0,0 km/h (0 Bft)
06.04.2014 15:50 12,7 C 87 % 1020,6 hPa 0,0 l/m 0,0 km/h (0 Bft) SW 225 10,6 C 0,0 C 0,0 km/h (0 Bft)
06.04.2014 15:55 13,2 C 84 % 1020,6 hPa 0,0 l/m 0,0 km/h (0 Bft) SW 225 10,6 C 0,0 C 0,0 km/h (0 Bft)
06.04.2014 16:00 13,6 C 80 % 1020,6 hPa 0,0 l/m 0,0 km/h (0 Bft) SW 225 10,2 C 0,0 C 0,0 km/h (0 Bft)
06.04.2014 16:05 13,8 C 81 % 1020,6 hPa 0,0 l/m 0,0 km/h (0 Bft) SW 225 10,6 C 0,0 C 0,0 km/h (0 Bft)
06.04.2014 16:10 13,6 C 77 % 1020,6 hPa 0,0 l/m 0,0 km/h (0 Bft) SW 225 9,6 C 0,0 C 0,0 km/h (0 Bft)
06.04.2014 16:15 13,4 C 79 % 1020,6 hPa 0,0 l/m 0,0 km/h (0 Bft) SW 225 9,8 C 0,0 C 0,0 km/h (0 Bft)
06.04.2014 16:20 14,1 C 79 % 1020,6 hPa 0,0 l/m 0,0 km/h (0 Bft) SW 225 10,5 C 0,0 C 0,0 km/h (0 Bft)
06.04.2014 16:25 14,4 C 79 % 1020,6 hPa 0,0 l/m 0,0 km/h (0 Bft) SW 225 10,8 C 0,0 C 0,0 km/h (0 Bft)
06.04.2014 16:30 13,7 C 79 % 1020,2 hPa 0,0 l/m 0,0 km/h (0 Bft) SW 225 10,1 C 0,0 C 0,0 km/h (0 Bft)
06.04.2014 16:35 12,7 C 79 % 1020,2 hPa 0,0 l/m 0,0 km/h (0 Bft) SW 225 9,2 C 0,0 C 0,0 km/h (0 Bft)
06.04.2014 16:40 12,9 C 83 % 1020,2 hPa 0,0 l/m 0,0 km/h (0 Bft) SW 225 10,1 C 0,0 C 0,0 km/h (0 Bft)
06.04.2014 16:45 12,8 C 84 % 1020,2 hPa 0,0 l/m 0,0 km/h (0 Bft) SW 225 10,2 C 0,0 C 0,0 km/h (0 Bft)
06.04.2014 16:50 12,8 C 85 % 1020,6 hPa 0,0 l/m 0,0 km/h (0 Bft) SW 225 10,3 C 0,0 C 0,0 km/h (0 Bft)
06.04.2014 16:55 13,0 C 85 % 1020,6 hPa 0,0 l/m 0,0 km/h (0 Bft) SW 225 10,5 C 0,0 C 0,0 km/h (0 Bft)
06.04.2014 17:00 13,2 C 86 % 1020,6 hPa 0,0 l/m 0,0 km/h (0 Bft) SW 225 10,9 C 0,0 C 0,0 km/h (0 Bft)
06.04.2014 17:05 13,1 C 85 % 1020,6 hPa 0,0 l/m 0,0 km/h (0 Bft) SW 225 10,6 C 0,0 C 0,0 km/h (0 Bft)
06.04.2014 17:10 12,9 C 86 % 1020,3 hPa 0,0 l/m 0,0 km/h (0 Bft) SW 225 10,6 C 0,0 C 0,0 km/h (0 Bft)
06.04.2014 17:15 12,9 C 86 % 1020,3 hPa 0,0 l/m 0,0 km/h (0 Bft) SW 225 10,6 C 0,0 C 0,0 km/h (0 Bft)
06.04.2014 17:20 12,9 C 86 % 1020,3 hPa 0,0 l/m 0,0 km/h (0 Bft) SW 225 10,6 C 0,0 C 0,0 km/h (0 Bft)
06.04.2014 17:25 13,1 C 85 % 1020,3 hPa 0,0 l/m 0,0 km/h (0 Bft) SW 225 10,6 C 0,0 C 0,0 km/h (0 Bft)
06.04.2014 17:30 13,3 C 84 % 1020,1 hPa 0,0 l/m 0,0 km/h (0 Bft) SW 225 10,7 C 0,0 C 0,0 km/h (0 Bft)
06.04.2014 17:35 13,6 C 82 % 1020,1 hPa 0,0 l/m 0,0 km/h (0 Bft) SW 225 10,6 C 0,0 C 0,0 km/h (0 Bft)
06.04.2014 17:40 13,7 C 80 % 1020,1 hPa 0,0 l/m 0,0 km/h (0 Bft) SW 225 10,3 C 0,0 C 0,0 km/h (0 Bft)
06.04.2014 17:45 13,2 C 79 % 1020,1 hPa 0,0 l/m 0,0 km/h (0 Bft) SW 225 9,6 C 0,0 C 0,0 km/h (0 Bft)
06.04.2014 17:50 13,1 C 78 % 1020,3 hPa 0,0 l/m 0,0 km/h (0 Bft) SW 225 9,4 C 0,0 C 0,0 km/h (0 Bft)
06.04.2014 17:55 13,4 C 79 % 1020,3 hPa 0,0 l/m 0,0 km/h (0 Bft) SW 225 9,8 C 0,0 C 0,0 km/h (0 Bft)
06.04.2014 18:00 13,6 C 80 % 1020,3 hPa 0,0 l/m 0,0 km/h (0 Bft) SW 225 10,2 C 0,0 C 0,0 km/h (0 Bft)
06.04.2014 18:05 13,4 C 78 % 1020,3 hPa 0,0 l/m 0,0 km/h (0 Bft) SW 225 9,6 C 0,0 C 0,0 km/h (0 Bft)
06.04.2014 18:10 13,5 C 77 % 1020,3 hPa 0,0 l/m 0,0 km/h (0 Bft) SW 225 9,5 C 0,0 C 0,0 km/h (0 Bft)
06.04.2014 18:15 13,1 C 71 % 1020,3 hPa 0,0 l/m 0,0 km/h (0 Bft) SW 225 8,0 C 0,0 C 0,0 km/h (0 Bft)
06.04.2014 18:20 13,1 C 72 % 1020,3 hPa 0,0 l/m 0,0 km/h (0 Bft) SW 225 8,2 C 0,0 C 0,0 km/h (0 Bft)
06.04.2014 18:25 13,1 C 72 % 1020,3 hPa 0,0 l/m 0,0 km/h (0 Bft) SW 225 8,2 C 0,0 C 0,0 km/h (0 Bft)
06.04.2014 18:30 13,0 C 72 % 1020,4 hPa 0,0 l/m 0,0 km/h (0 Bft) SW 225 8,1 C 0,0 C 0,0 km/h (0 Bft)
06.04.2014 18:35 12,7 C 74 % 1020,4 hPa 0,0 l/m 0,0 km/h (0 Bft) SW 225 8,2 C 0,0 C 0,0 km/h (0 Bft)
06.04.2014 18:40 12,5 C 74 % 1020,4 hPa 0,0 l/m 0,0 km/h (0 Bft) SW 225 8,0 C 0,0 C 0,0 km/h (0 Bft)
06.04.2014 18:45 12,0 C 75 % 1020,4 hPa 0,0 l/m 0,0 km/h (0 Bft) SW 225 7,7 C 0,0 C 0,0 km/h (0 Bft)
06.04.2014 18:50 11,9 C 75 % 1020,2 hPa 0,0 l/m 0,0 km/h (0 Bft) SW 225 7,6 C 0,0 C 0,0 km/h (0 Bft)
06.04.2014 18:55 11,6 C 77 % 1020,2 hPa 0,0 l/m 0,0 km/h (0 Bft) SW 225 7,7 C 0,0 C 0,0 km/h (0 Bft)
06.04.2014 19:00 11,5 C 78 % 1020,2 hPa 0,0 l/m 0,0 km/h (0 Bft) SW 225 7,8 C 0,0 C 0,0 km/h (0 Bft)
06.04.2014 19:05 11,4 C 78 % 1020,2 hPa 0,0 l/m 0,0 km/h (0 Bft) SW 225 7,7 C 0,0 C 0,0 km/h (0 Bft)
06.04.2014 19:10 11,3 C 79 % 1022,2 hPa 0,0 l/m 0,0 km/h (0 Bft) SW 225 7,8 C 0,0 C 0,0 km/h (0 Bft)
06.04.2014 19:15 11,2 C 79 % 1022,2 hPa 0,0 l/m 0,0 km/h (0 Bft) SW 225 7,7 C 0,0 C 0,0 km/h (0 Bft)
06.04.2014 19:20 10,9 C 81 % 1022,2 hPa 0,0 l/m 0,0 km/h (0 Bft) SW 225 7,8 C 0,0 C 0,0 km/h (0 Bft)
06.04.2014 19:25 10,7 C 81 % 1022,2 hPa 0,0 l/m 0,0 km/h (0 Bft) SW 225 7,6 C 0,0 C 0,0 km/h (0 Bft)
06.04.2014 19:30 10,5 C 81 % 1019,8 hPa 0,0 l/m 0,0 km/h (0 Bft) SW 225 7,4 C 0,0 C 0,0 km/h (0 Bft)
06.04.2014 19:35 10,2 C 82 % 1019,8 hPa 0,0 l/m 0,0 km/h (0 Bft) SW 225 7,3 C 0,0 C 0,0 km/h (0 Bft)
06.04.2014 19:40 10,0 C 82 % 1019,8 hPa 0,0 l/m 0,0 km/h (0 Bft) SW 225 7,1 C 0,0 C 0,0 km/h (0 Bft)
06.04.2014 19:45 9,8 C 83 % 1019,8 hPa 0,0 l/m 0,0 km/h (0 Bft) SW 225 7,1 C 0,0 C 0,0 km/h (0 Bft)
06.04.2014 19:50 9,6 C 83 % 1019,1 hPa 0,0 l/m 0,0 km/h (0 Bft) SW 225 6,9 C 0,0 C 0,0 km/h (0 Bft)
06.04.2014 19:55 9,2 C 84 % 1019,1 hPa 0,0 l/m 0,0 km/h (0 Bft) SW 225 6,6 C 0,0 C 0,0 km/h (0 Bft)
06.04.2014 20:00 9,0 C 84 % 1019,1 hPa 0,0 l/m 0,0 km/h (0 Bft) SW 225 6,4 C 0,0 C 0,0 km/h (0 Bft)
06.04.2014 20:05 8,9 C 85 % 1019,1 hPa 0,0 l/m 0,0 km/h (0 Bft) SW 225 6,5 C 0,0 C 0,0 km/h (0 Bft)
06.04.2014 20:10 8,7 C 85 % 1019,3 hPa 0,0 l/m 0,0 km/h (0 Bft) SW 225 6,3 C 0,0 C 0,0 km/h (0 Bft)
06.04.2014 20:15 8,5 C 85 % 1019,3 hPa 0,0 l/m 0,0 km/h (0 Bft) SW 225 6,1 C 0,0 C 0,0 km/h (0 Bft)
06.04.2014 20:20 8,4 C 85 % 1019,3 hPa 0,0 l/m 0,0 km/h (0 Bft) SW 225 6,0 C 0,0 C 0,0 km/h (0 Bft)
06.04.2014 20:25 8,1 C 85 % 1019,3 hPa 0,0 l/m 0,0 km/h (0 Bft) SW 225 5,7 C 0,0 C 0,0 km/h (0 Bft)
06.04.2014 20:30 7,9 C 86 % 1019,7 hPa 0,0 l/m 0,0 km/h (0 Bft) SW 225 5,7 C 0,0 C 0,0 km/h (0 Bft)
06.04.2014 20:35 7,8 C 86 % 1019,7 hPa 0,0 l/m 0,0 km/h (0 Bft) SW 225 5,6 C 0,0 C 0,0 km/h (0 Bft)
06.04.2014 20:40 7,7 C 86 % 1019,7 hPa 0,0 l/m 0,0 km/h (0 Bft) SW 225 5,5 C 0,0 C 0,0 km/h (0 Bft)
06.04.2014 20:45 7,5 C 87 % 1019,7 hPa 0,0 l/m 0,0 km/h (0 Bft) SW 225 5,5 C 0,0 C 0,0 km/h (0 Bft)
06.04.2014 20:49 7,6 C 87 % 1020,1 hPa 0,0 l/m 0,0 km/h (0 Bft) SW 225 5,6 C 0,0 C 0,0 km/h (0 Bft)
06.04.2014 20:50 7,6 C 87 % 1020,1 hPa 0,0 l/m 0,0 km/h (0 Bft) SW 225 5,6 C 0,0 C 0,0 km/h (0 Bft)
06.04.2014 20:55 7,7 C 87 % 1020,1 hPa 0,0 l/m 0,0 km/h (0 Bft) SW 225 5,7 C 0,0 C 0,0 km/h (0 Bft)
06.04.2014 21:00 7,6 C 87 % 1020,1 hPa 0,0 l/m 0,0 km/h (0 Bft) SW 225 5,6 C 0,0 C 0,0 km/h (0 Bft)
06.04.2014 21:05 7,4 C 87 % 1020,1 hPa 0,0 l/m 0,0 km/h (0 Bft) SW 225 5,4 C 0,0 C 0,0 km/h (0 Bft)
06.04.2014 21:10 7,4 C 87 % 1020,3 hPa 0,0 l/m 0,0 km/h (0 Bft) SW 225 5,4 C 0,0 C 0,0 km/h (0 Bft)
06.04.2014 21:15 7,3 C 88 % 1020,3 hPa 0,0 l/m 0,0 km/h (0 Bft) SW 225 5,4 C 0,0 C 0,0 km/h (0 Bft)
06.04.2014 21:20 7,2 C 88 % 1020,3 hPa 0,0 l/m 0,0 km/h (0 Bft) SW 225 5,3 C 0,0 C 0,0 km/h (0 Bft)
06.04.2014 21:25 6,9 C 88 % 1020,3 hPa 0,0 l/m 0,0 km/h (0 Bft) SW 225 5,1 C 0,0 C 0,0 km/h (0 Bft)
06.04.2014 21:30 6,8 C 88 % 1020,5 hPa 0,0 l/m 0,0 km/h (0 Bft) SW 225 5,0 C 0,0 C 0,0 km/h (0 Bft)
06.04.2014 21:35 6,9 C 89 % 1020,5 hPa 0,0 l/m 0,0 km/h (0 Bft) SW 225 5,2 C 0,0 C 0,0 km/h (0 Bft)
06.04.2014 21:40 6,7 C 88 % 1020,5 hPa 0,0 l/m 0,0 km/h (0 Bft) SW 225 4,9 C 0,0 C 0,0 km/h (0 Bft)
06.04.2014 21:45 6,6 C 89 % 1020,5 hPa 0,0 l/m 0,0 km/h (0 Bft) SW 225 4,9 C 0,0 C 0,0 km/h (0 Bft)
06.04.2014 21:50 6,3 C 89 % 1020,5 hPa 0,0 l/m 0,0 km/h (0 Bft) SW 225 4,6 C 0,0 C 0,0 km/h (0 Bft)
06.04.2014 21:55 6,2 C 89 % 1020,5 hPa 0,0 l/m 0,0 km/h (0 Bft) SW 225 4,5 C 0,0 C 0,0 km/h (0 Bft)
06.04.2014 22:00 6,1 C 89 % 1020,5 hPa 0,0 l/m 0,0 km/h (0 Bft) SW 225 4,4 C 0,0 C 0,0 km/h (0 Bft)
06.04.2014 22:05 6,5 C 89 % 1020,5 hPa 0,0 l/m 0,0 km/h (0 Bft) SW 225 4,8 C 0,0 C 0,0 km/h (0 Bft)
06.04.2014 22:10 6,4 C 89 % 1020,9 hPa 0,0 l/m 0,0 km/h (0 Bft) SW 225 4,7 C 0,0 C 0,0 km/h (0 Bft)
06.04.2014 22:15 5,9 C 89 % 1020,9 hPa 0,0 l/m 0,0 km/h (0 Bft) SW 225 4,2 C 0,0 C 0,0 km/h (0 Bft)
06.04.2014 22:20 5,8 C 89 % 1020,9 hPa 0,0 l/m 0,0 km/h (0 Bft) SW 225 4,1 C 0,0 C 0,0 km/h (0 Bft)
06.04.2014 22:25 5,9 C 90 % 1020,9 hPa 0,0 l/m 0,0 km/h (0 Bft) SW 225 4,4 C 0,0 C 0,0 km/h (0 Bft)
06.04.2014 22:30 5,8 C 90 % 1020,8 hPa 0,0 l/m 0,0 km/h (0 Bft) SW 225 4,3 C 0,0 C 0,0 km/h (0 Bft)
06.04.2014 22:35 5,5 C 90 % 1020,8 hPa 0,0 l/m 0,0 km/h (0 Bft) SW 225 4,0 C 0,0 C 0,0 km/h (0 Bft)
06.04.2014 22:40 5,7 C 90 % 1020,8 hPa 0,0 l/m 0,0 km/h (0 Bft) SW 225 4,2 C 0,0 C 0,0 km/h (0 Bft)
06.04.2014 22:45 6,0 C 90 % 1020,8 hPa 0,0 l/m 0,0 km/h (0 Bft) SW 225 4,5 C 0,0 C 0,0 km/h (0 Bft)
06.04.2014 22:50 5,8 C 91 % 1020,9 hPa 0,0 l/m 0,0 km/h (0 Bft) SW 225 4,4 C 0,0 C 0,0 km/h (0 Bft)
06.04.2014 22:55 5,8 C 91 % 1020,9 hPa 0,0 l/m 0,0 km/h (0 Bft) SW 225 4,4 C 0,0 C 0,0 km/h (0 Bft)
06.04.2014 23:00 6,2 C 90 % 1020,9 hPa 0,0 l/m 0,0 km/h (0 Bft) SW 225 4,7 C 0,0 C 0,0 km/h (0 Bft)
06.04.2014 23:05 6,0 C 90 % 1020,9 hPa 0,0 l/m 0,0 km/h (0 Bft) SW 225 4,5 C 0,0 C 0,0 km/h (0 Bft)
06.04.2014 23:10 5,9 C 91 % 1020,9 hPa 0,0 l/m 0,0 km/h (0 Bft) SW 225 4,5 C 0,0 C 0,0 km/h (0 Bft)
06.04.2014 23:15 5,9 C 91 % 1020,9 hPa 0,0 l/m 0,0 km/h (0 Bft) SW 225 4,5 C 0,0 C 0,0 km/h (0 Bft)
06.04.2014 23:20 5,9 C 91 % 1020,9 hPa 0,0 l/m 0,0 km/h (0 Bft) SW 225 4,5 C 0,0 C 0,0 km/h (0 Bft)
06.04.2014 23:25 5,8 C 91 % 1020,9 hPa 0,0 l/m 0,0 km/h (0 Bft) SW 225 4,4 C 0,0 C 0,0 km/h (0 Bft)
06.04.2014 23:30 5,9 C 91 % 1021,1 hPa 0,0 l/m 0,0 km/h (0 Bft) SW 225 4,5 C 0,0 C 0,0 km/h (0 Bft)
06.04.2014 23:35 6,1 C 90 % 1021,1 hPa 0,0 l/m 0,0 km/h (0 Bft) SW 225 4,6 C 0,0 C 0,0 km/h (0 Bft)
06.04.2014 23:40 6,2 C 90 % 1021,1 hPa 0,0 l/m 0,0 km/h (0 Bft) SW 225 4,7 C 0,0 C 0,0 km/h (0 Bft)
06.04.2014 23:45 6,1 C 90 % 1021,1 hPa 0,0 l/m 0,0 km/h (0 Bft) SW 225 4,6 C 0,0 C 0,0 km/h (0 Bft)
06.04.2014 23:50 6,0 C 90 % 1021,0 hPa 0,0 l/m 0,0 km/h (0 Bft) SW 225 4,5 C 0,0 C 0,0 km/h (0 Bft)
06.04.2014 23:55 5,9 C 92 % 1021,0 hPa 0,0 l/m 0,0 km/h (0 Bft) SW 225 4,7 C 0,0 C 0,0 km/h (0 Bft)
_ Min-Zeit 22:35 13:45 05:25 - 23:55 - - 22:35 23:55 23:55
Minimum _ 5,5 C 70 % 1018,1 hPa - 0,0 km/h (0 Bft) - - 4,0 C 0,0 C 0,0 km/h (0 Bft)
_ Max-Zeit 13:05 10:30 19:25 23:55 23:55 - - 11:30 23:55 23:55
Maximum _ 15,1 C 95 % 1022,2 hPa 0,0 l/m 0,0 km/h
SW (0 Bft)
- - 11,3 C 0,0 C 0,0 km/h
SW (0 Bft)
Durchschnitt _ 9,9 C 86 % 1019,8 hPa #0,0 l/m 0,0 km/h (0 Bft) - - - 7,6 C 0,0 C 0,0 km/h (0 Bft)